Regional Weather Roundup
Issued by NWS

Home | Current Version | Previous Version | Graphics & Text | Print | Product List | Glossary Off
Versions: 1 2 3 4 5 6 7 8 9 10 11 12 13 14 15 16 17 18 19 20 21 22 23 24 25 26 27 28 29 30 31 32 33 34 35 36 37 38 39 40 41 42 43 44 45 46 47 48 49 50

000
ASUS43 KMPX 061601
RWRMN
WEATHER ROUNDUP FOR MINNESOTA
NATIONAL WEATHER SERVICE TWIN CITIES/CHANHASSEN MN
1000 AM CST SAT FEB 06 2016


NOTE: "FAIR" INDICATES FEW OR NO CLOUDS BELOW 12,000 FEET WITH NO
SIGNIFICANT WEATHER AND/OR OBSTRUCTIONS TO VISIBILITY. N/A MEANS
CURRENT SKY AND/OR WEATHER CONDITIONS ARE NOT AVAILABLE.

MNZ060>063-068>070-061700-
   Twin Cities Metro

CITY           SKY/WX    TMP DP  RH WIND       PRES   REMARKS
TWIN CITIES    CLOUDY    28  24  85 S8        30.09F WCI  20
ST PAUL        CLOUDY    27  24  89 S13       30.11S WCI  16
CRYSTAL        MOSUNNY   28  23  81 S10       30.06F WCI  19
BLAINE         PTSUNNY   30  27  86 S12       30.06F WCI  21
LAKEVILLE      MOSUNNY   27  25  93 S7        30.09F WCI  19
EDEN PRAIRIE   CLOUDY    26  22  84 S13       30.07F FOG     WCI  15
SOUTH ST PAUL  PTSUNNY   28  24  85 S8        30.10F WCI  20
LAKE ELMO      CLOUDY    28  27  93 S10       30.10F WCI  19
$$
MNZ001>005-007-008-013>017-022>024-027-028-061700-
   Northwest Minnesota

CITY           SKY/WX    TMP DP  RH WIND       PRES   REMARKS
BEMIDJI        CLOUDY    24  20  86 SE8       29.85F WCI  15
HALLOCK        CLOUDY    25  21  86 S16       29.76F WCI  12
ROSEAU         CLOUDY    25  19  80 S8        29.80F WCI  16
WARROAD        CLOUDY    21  19  93 E7        29.82F WCI  13
THIEF RVR FALL CLOUDY    27  19  74 S10       29.81F WCI  17
CROOKSTON      CLOUDY    27  23  86 S15       29.82F WCI  15
FOSSTON        CLOUDY    28  21  74 S17       29.83F WCI  16
DETROIT LAKES  MOSUNNY   30  27  86 S12       29.86F WCI  21
MOORHEAD       MOSUNNY   28  23  80 S13       29.86F WCI  18
PARK RAPIDS    CLOUDY    27  22  81 S8        29.87F WCI  19
MAHNOMEN       CLOUDY    27  23  83 S17       29.84F WCI  15
$$
MNZ006-009>011-018-025>026-061700-
   North Central Minnesota

CITY           SKY/WX    TMP DP  RH WIND       PRES   REMARKS
BAUDETTE       CLOUDY    22  17  81 SE7       29.83F WCI  13
FLAG ISLAND    CLOUDY    19  18  93 SE6       29.83F WCI  11
INTL FALLS     CLOUDY    22  17  81 SE6       29.88F WCI  14
WASKISH        CLOUDY    27  21  80 SE7       29.84F WCI  19
LONGVILLE      CLOUDY    27  21  80 SE9       29.90F WCI  17
GRAND RAPIDS   CLOUDY    21  18  86 S13       29.92F WCI   9
CRANE LAKE     CLOUDY    19  16  86 SE2       29.95F
ORR            CLOUDY    21  16  79 CALM      29.89F
COOK           CLOUDY    21  18  86 SE2       29.92F
WALKER         PTSUNNY   23  19  86 SE3       29.88F
$$
MNZ012-019>021-037-061700-
   Northeast Minnesota

CITY           SKY/WX    TMP DP  RH WIND       PRES   REMARKS
DULUTH         CLOUDY    22  18  85 SW12      29.96F WCI  10
ELY            CLOUDY    19  18  93 CALM      29.94S
HIBBING        CLOUDY    20  18  92 S6        29.93F WCI  12
EVELETH        MOSUNNY   21  19  93 S6        29.95F WCI  14
DULUTH HARBOR  CLOUDY    25  21  86 SW8       30.03F WCI  16
TWO HARBORS    CLOUDY    25  19  80 SW6       29.98S WCI  18
SILVER BAY     CLOUDY    23  18  80 CALM      29.97F
GRAND MARAIS     N/A     27  17  66 NW3       30.01F
G MARAIS ARPRT CLOUDY    19  12  73 SW3       29.94S
$$
MNZ029>031-032-039>041-046>048-054>057-064-061700-
   West Central Minnesota

CITY           SKY/WX    TMP DP  RH WIND       PRES   REMARKS
FERGUS FALLS   CLOUDY    28  25  86 S12       29.93F WCI  18
WHEATON        CLOUDY    36  28  75 S15       29.91F
MORRIS         CLOUDY    27  27 100 S10       29.93F WCI  17
ALEXANDRIA     FLURRIES  27  22  81 S14       29.93F WCI  16
ELBOW LAKE     FAIR      26  26  96 S12       29.92F WCI  16
WADENA         CLOUDY    27  21  80 S10       29.89F WCI  17
GLENWOOD       CLOUDY    27  27 100 S10       29.95F WCI  17
APPLETON       CLOUDY    32  25  74 SW8       29.96F WCI  25
BENSON         CLOUDY    30  25  80 CALM      29.97F
ORTONVILLE     MOSUNNY   36  23  60 SW7       29.94F
MADISON        CLOUDY    37  25  60 SW16      29.96F
WILLMAR        FAIR      30  25  80 S5        30.01F WCI  25
$$
MNZ033>034-036-042>043-049>051-058-059-061700-
   Central Minnesota

CITY           SKY/WX    TMP DP  RH WIND       PRES   REMARKS
ST CLOUD       CLOUDY    24  20  84 S12       30.01S WCI  13
SAUK CENTRE    FAIR      27  23  82 S9        29.96F WCI  18
PAYNESVILLE    CLOUDY    26  23  87 S7        30.01S WCI  19
AITKIN         CLOUDY    28  19  69 S10       29.94F WCI  19
PINE RIVER     CLOUDY    25  23  93 SE10      29.94F WCI  15
BRAINERD       CLOUDY    26  22  84 S13       29.94F WCI  15
STAPLES        CLOUDY    25  21  86 S10       29.91F WCI  15
LONG PRAIRIE   FAIR      25  21  86 S9        29.95F WCI  15
LITTLE FALLS   CLOUDY    27  21  80 SE8       29.98S WCI  18
LITCHFIELD     MOSUNNY   25  23  93 S5        30.02F WCI  19
BUFFALO        MOSUNNY   25  21  84 S6        30.06R WCI  18
MAPLE LAKE     CLOUDY    26  23  89 S10       30.04F WCI  16
$$
MNZ037-044-045-052-053-061700-
   East Central Minnesota

CITY           SKY/WX    TMP DP  RH WIND       PRES   REMARKS
PRINCETON      CLOUDY    28  25  86 S10       30.03R WCI  19
MORA           CLOUDY    27  23  86 S10       30.04F WCI  17
CAMBRIDGE      MOSUNNY   30  21  69 S10       30.03S WCI  21
RUSH CITY      MOSUNNY   28  23  84 S8        30.05F WCI  19
MOOSE LAKE     CLOUDY    27  21  80 S7        29.99F FOG     WCI  19
HINCKLEY       CLOUDY    28  27  93 S10       30.03F WCI  19
CLOQUET        CLOUDY    23  19  86 S10       29.97F WCI  12
MCGREGOR       CLOUDY    27  23  86 S7        29.97F WCI  19
$$
MNZ071>073-080-081-089-090-097-098-061700-
   Southwest Minnesota

CITY           SKY/WX    TMP DP  RH WIND       PRES   REMARKS
MONTEVIDEO     CLOUDY    32  25  74 SW13      30.00F WCI  22
GRANITE FALLS  CLOUDY    33  27  77 S13       30.02F WCI  24
CANBY          CLOUDY    36  26  68 SW15G23   29.99F
MARSHALL       CLOUDY    30  23  75 SW14      30.01S WCI  19
REDWOOD FALLS  CLOUDY    29  22  75 SW13      30.04S WCI  19
OLIVIA         CLOUDY    30  27  86 S9        30.02S WCI  22
PIPESTONE        N/A     25  18  74 SW7       30.04S WCI  17
WINDOM         CLOUDY    25  25 100 SW7       30.07S WCI  17
WORTHINGTON    MOSUNNY   23  19  86 SW14      30.08S WCI  11
JACKSON        SUNNY     28  25  86 S8        30.09S WCI  20
TRACY          CLOUDY    30  24  79 SW23      30.02F WCI  17
SLAYTON        CLOUDY    23  23 100 S12       30.04F WCI  12
$$
MNZ065>067-074>077-082>085-091>093-061700-
   South Central Minnesota

CITY           SKY/WX    TMP DP  RH WIND       PRES   REMARKS
MANKATO        CLOUDY    27  25  93 S10       30.10S WCI  17
NEW ULM        SUNNY     25  25 100 S12       30.07S WCI  14
ST JAMES       SUNNY     27  27 100 S14       30.09S WCI  15
FAIRMONT       CLOUDY    25  21  86 SW13      30.10S WCI  13
GLENCOE        CLOUDY    25  25  99 S8        30.06F FOG     WCI  16
FARIBAULT      LGT SNOW  27  25  93 S10G17      N/A  WCI  17
OWATONNA       LGT SNOW  25  23  93 S14       30.11S WCI  13
WASECA         LGT SNOW  27  25  93 S14       30.12F VSB 1   WCI  15
ALBERT LEA     FOG       25  25 100 SW8       30.13S VSB 1/2 WCI  16
$$
MNZ078>079-086>088-094>096-061700-
   Southeast Minnesota

CITY           SKY/WX    TMP DP  RH WIND       PRES   REMARKS
ROCHESTER      CLOUDY    24  22  91 SW12      30.13S FOG     WCI  13
RED WING       CLOUDY    28  23  80 SW6       30.13S WCI  22
STANTON        CLOUDY    29  25  84 S7        30.10F HAZE    WCI  22
DODGE CENTER   LGT SNOW  25  23  93 SW10      30.11S VSB 1   WCI  15
WINONA         CLOUDY    30  23  74 CALM      30.17S
AUSTIN         FOG       25  25 100 SW13      30.14R VSB 1/4 WCI  13
PRESTON        CLOUDY    25  22  90 SW9       30.14F FOG     WCI  15
$$
ABBREVIATIONS USED IN REMARKS
   TC - TEMPERATURES IN CELSIUS
  WCI - WIND CHILL INDEX
   HX - HEAT INDEX
  VSB - VISIBILITY
$$



USA.gov is the U.S. government's official web portal to all federal, state and local government web resources and services.